AirNav   Everest Fuels
 
 812 users online  

KJRA West 30th St Heliport
New York, New York, USA

GOING TO NEW YORK?


FAA INFORMATION EFFECTIVE 05 DECEMBER 2019

Location

FAA Identifier: JRA
Lat/Long: 40-45-16.3650N 074-00-25.5020W
40-45.272750N 074-00.425033W
40.7545458,-74.0070839
(estimated)
Elevation: 7 ft. / 2 m (estimated)
Variation: 13W (1985)
From city: LCTD IN MANHATTAN.
Time zone: UTC -5 (UTC -4 during Daylight Saving Time)
Zip code: 10001

Heliport Operations

Heliport use: Open to the public
Control tower: no
ARTCC: NEW YORK CENTER
FSS: NEW YORK FLIGHT SERVICE STATION
NOTAMs facility: ISP (NOTAM-D service available)
Attendance: CONTINUOUS
Wind indicator: lighted
Segmented circle: no
Lights: SS-SR
Landing fee: yes

Heliport Communications

CTAF/UNICOM: 123.05
NEW YORK APPROACH: 127.85 126.05
NEW YORK DEPARTURE: 127.85 126.05
WX AWOS-3PT at JRB (3 nm S): 128.175 (212-425-1534)
WX ASOS at TEB (6 nm NW): 132.025 (201-393-0855)
WX ASOS at LGA (6 nm E): PHONE 718-672-6317
WX ASOS at EWR (8 nm SW): PHONE 973-621-2892
WX ASOS at JFK (12 nm SE): 128.725 (718-656-0956)
WX AWOS-3 at LDJ (14 nm SW): 124.025 (908-862-7383)
WX ASOS at CDW (14 nm NW): 135.5 (973-575-4417)
WX AWOS-3 at MMU (19 nm W): PHONE 973-290-0135

Nearby radio navigation aids

VOR radial/distance  VOR name  Freq  Var
TEBr167/6.2TETERBORO VOR/DME108.4011W
LGAr266/6.5LA GUARDIA VOR/DME113.1012W
CRIr340/9.9CANARSIE VOR/DME112.3011W
JFKr316/13.0KENNEDY VOR/DME115.9012W
COLr026/27.5COLTS NECK VOR/DME115.4011W
SAXr139/30.5SPARTA VORTAC115.7011W
DPKr278/32.0DEER PARK VOR/DME117.7012W
SBJr083/35.0SOLBERG VOR/DME112.9010W
CMKr223/37.0CARMEL VOR/DME116.6012W
BWZr105/37.1BROADWAY VOR/DME114.2011W
RBVr044/39.9ROBBINSVILLE VORTAC113.8010W

 
NDB name  Hdg/Dist  Freq  Var  ID
TORBY130/6.421412WTE - .
CHATHAM101/19.225413WCAT -.-. .- -
BABYLON294/28.727514WBBN -... -... -.

Heliport Services

Fuel available: A
Parking: tiedowns
Airframe service: NONE
Powerplant service: NONE
Bottled oxygen: NONE
Bulk oxygen: NONE

Runway Information

Helipad H1

Dimensions: 64 x 64 ft. / 20 x 20 m
RYS H1, H2, & H3 REMEASURED.
Surface: asphalt
Weight bearing capacity: 
Single wheel: 6.0
Runway edge lights: PERI
Operational restrictions: ALL HELIPADS, RY H1-H11 CIRCULAR.
Traffic pattern: rightleft
Runway end identifier lights: no

Helipad H10

Dimensions: 44 x 44 ft. / 13 x 13 m
Surface: asphalt
Operational restrictions: RY H10 MKD AS H-C.
Traffic pattern: leftleft

Helipad H11

Dimensions: 44 x 44 ft. / 13 x 13 m
Surface: asphalt
Operational restrictions: RY H11 MKD AS H-D.
Traffic pattern: leftleft

Helipad H2

Dimensions: 44 x 44 ft. / 13 x 13 m
Surface: asphalt
Weight bearing capacity: 
Single wheel: 6.0
Traffic pattern: rightleft

Helipad H3

Dimensions: 44 x 44 ft. / 13 x 13 m
Surface: asphalt, in good condition
Traffic pattern: leftleft

Helipad H4

Dimensions: 44 x 44 ft. / 13 x 13 m
Surface: asphalt
Traffic pattern: leftleft

Helipad H5

Dimensions: 44 x 44 ft. / 13 x 13 m
Surface: asphalt
Traffic pattern: leftleft

Helipad H6

Dimensions: 44 x 44 ft. / 13 x 13 m
Surface: asphalt
Traffic pattern: leftleft

Helipad H8

Dimensions: 44 x 44 ft. / 13 x 13 m
Surface: asphalt
Operational restrictions: RY H8 MARKED AS H-A.
Traffic pattern: leftleft

Helipad H9

Dimensions: 44 x 44 ft. / 13 x 13 m
Surface: asphalt
Operational restrictions: RY H9 MKD AS H-B.
Traffic pattern: leftleft

Heliport Ownership and Management from official FAA records

Ownership: Publicly-owned
Owner: HUDSON RIVER PARK TRUST
PIER 40 WEST HOUSTON STREET
NEW YORK, NY 10007
Phone 212-627-2020
Manager: BRIAN TOLBERT
WEST 30 ST & 12 AVE.
NEW YORK, NY 10001
Phone 212-563-4442

Heliport Operational Statistics

Aircraft operations: avg 40/day *
85% air taxi
14% transient general aviation
<1% military
* for 12-month period ending 07 September 2017

Additional Remarks

FIRE ALARM BOX TO NEARBY FIREHOUSE LCTD AT FAC.
PARKING AVAILABLE.
H3 NO INGRESS/EGRESS OVER 12TH AVENUE.
ALL TKOFS & LDGS MADE ONLY OVER HUDSON RIVER.
NORTH & SOUTH FINGER PIER PADS ARE CLOSED.
+40 FT LIGHTS LOCATED AT SOUTH END OF HELIPORT.
+10 FT FENCING LOCATED ALONG EAST EDGE OF HELIPORT AND BETWEEN LANDING SPOTS 2 AND 3.
FOR CD CTC NEW YORK APCH AT 516-683-2849.

Instrument Procedures

NOTE: All procedures below are presented as PDF files. If you need a reader for these files, you should download the free Adobe Reader.

NOT FOR NAVIGATION. Please procure official charts for flight.
FAA instrument procedures published for use from 05 December 2019 at 0900Z to 02 January 2020 at 0900Z.

 
IAPs - Instrument Approach Procedures
COPTER RNAV (GPS) 210   download (288KB)
 
Departure Procedures
JEDIL TWO (COPTER) (RNAV)   download (81KB)
NOTE: Special Take-Off Minimums/Departure Procedures apply   download (268KB)

Other nearby airports with instrument procedures:

6N5 - East 34th Street Heliport (2 nm SE)
KJRB - Downtown Manhattan/Wall Street Heliport (3 nm S)
KTEB - Teterboro Airport (6 nm NW)
KLGA - LaGuardia Airport (6 nm E)
KEWR - Newark Liberty International Airport (8 nm SW)
KJFK - John F Kennedy International Airport (12 nm SE)
KLDJ - Linden Airport (14 nm SW)
KCDW - Essex County Airport (14 nm NW)
N07 - Lincoln Park Airport (18 nm NW)
KMMU - Morristown Municipal Airport (19 nm W)
 
Loc | Ops | Rwys | IFR | FBO | Links
Com | Nav | Svcs | Stats | Notes
Area around KJRA (West 30th St Heliport)
 
Road maps at: MapQuest Bing Google
 
Aerial photo
WARNING: Photo may not be current or correct
Aerial photo of KJRA (West 30th St Heliport)
Do you have a better or more recent aerial photo of West 30th St Heliport that you would like to share? If so, please send us your photo.

 
Sectional chart

 
Airport distance calculator
Flying to West 30th St Heliport? Find the distance to fly.

From to KJRA

Sunrise and sunset
Times for 15-Dec-2019
 Local
(UTC-5)
 Zulu
(UTC)
Morning civil twilight06:4311:43
Sunrise07:1412:14
Sunset16:2821:28
Evening civil twilight16:5921:59

Current date and time
Zulu (UTC)  16-Dec-2019 03:32:19
Local (UTC-5)  15-Dec-2019 22:32:19
 
METAR
KNYC 
3nm NE 
160251Z AUTO VRB06KT 10SM CLR 03/M07 A3014 RMK AO2 SLP199 T00331072 53029 $
KJRB 
3nm S 
160256Z AUTO VRB03KT BKN050 04/M04 A3013 RMK AO2 SLP203 T00441044 53024 PWINO
KLGA 
6nm E 
160251Z 31015KT 10SM FEW050 FEW250 04/M06 A3011 RMK AO2 SLP197 T00391061 53027
KTEB 
7nm N 
160251Z 30009KT 10SM FEW050 03/M07 A3012 RMK AO2 SLP198 T00281067 51028
KEWR 
8nm SW 
160251Z 28007KT 10SM BKN050 03/M06 A3013 RMK AO2 SLP200 T00331061 51026
KJFK 
13nm SE 
160251Z 29010KT 10SM BKN050 04/M04 A3013 RMK AO2 SLP201 T00391044 51024
KLDJ 
14nm SW 
160315Z AUTO 30007KT 10SM SCT050 03/M06 A3015 RMK AO2 T00251064
KCDW 
15nm NW 
160253Z 32009KT 10SM CLR 03/M08 A3013 RMK AO2 SLP211 T00331078 53030
KMMU 
19nm W 
160315Z AUTO 30009KT 10SM SCT050 02/M06 A3014 RMK AO2
TAF
KLGA 
6nm E 
160219Z 1602/1706 32014G20KT P6SM SCT050 FM160700 32011KT P6SM BKN250 FM160900 32008KT P6SM BKN120 FM161100 31006KT P6SM BKN050 FM161500 30005KT P6SM BKN040 FM161700 20005KT P6SM SCT015 BKN025 FM162100 05005KT P6SM BKN015 OVC025 PROB30 1622/1624 5SM -SN OVC015 FM170000 06005KT 5SM -RASNPL OVC015 FM170400 06005KT 5SM -RA OVC015
KTEB 
7nm N 
160228Z 1602/1706 31010KT P6SM FEW060 FM160500 31007KT P6SM SCT250 FM160700 31005KT P6SM BKN120 FM161100 VRB03KT P6SM BKN050 FM161500 VRB03KT P6SM BKN040 FM161700 VRB03KT P6SM SCT015 BKN025 FM162100 VRB03KT P6SM BKN015 OVC025 FM162300 VRB03KT P6SM VCSH OVC025 PROB30 1700/1702 5SM -SN OVC015 FM170200 VRB03KT 5SM -RASNPL OVC015 FM170400 06005KT 5SM -RA OVC015
KEWR 
8nm SW 
160228Z 1602/1706 26009KT P6SM BKN050 FM160300 30010KT P6SM FEW250 FM160600 30007KT P6SM BKN250 FM160800 30005KT P6SM BKN120 FM161100 20004KT P6SM BKN050 FM161500 VRB04KT P6SM BKN040 FM161700 20005KT P6SM SCT015 BKN025 FM162100 05005KT P6SM BKN015 OVC025 PROB30 1622/1624 5SM -SN OVC015 FM170000 05004KT 5SM -RASNPL OVC015 FM170300 04004KT 5SM -RA OVC015
KJFK 
13nm SE 
160228Z 1602/1706 29013G19KT P6SM FEW060 FM160400 30010KT P6SM FEW250 FM160700 31007KT P6SM BKN250 FM160900 31006KT P6SM BKN150 FM161100 31005KT P6SM BKN050 FM161500 VRB04KT P6SM BKN040 FM161700 19005KT P6SM SCT015 BKN025 FM162100 07005KT P6SM BKN015 OVC025 PROB30 1621/1623 5SM -SN OVC015 FM162300 07004KT 5SM -RASN OVC015 FM170200 07004KT 5SM -RA OVC015
NOTAMs
Click for the latest NOTAMs
NOTAMs are issued by the DoD/FAA and will open in a separate window not controlled by AirNav.

 

 
 

FBO, Fuel Providers, and Aircraft Ground Support

  
 Business Name 
 
 Contact 
 
 Services / Description 
 
Fuel Prices
 
Comments
  
Air Pegasus 212-563-4442
no information available

If you are affiliated with Air Pegasus and would like to show here your services, contact info, web link, logo, and more, click here
Jet A
FS $8.15 
 Updated 28-Mar-2019
 
   write
FS=Full service
Update Fuel Prices
 

Would you like to see your business listed on this page?

 If your business provides an interesting product or service to pilots, flight crews, aircraft, or users of the West 30th St Heliport, you should consider listing it here.  To start the listing process, click on the button below
 
Add a business
 

Other Pages about West 30th St Heliport

www.panynj.gov/...
 
Update a link
 
Copyright © AirNav, LLC. All rights reserved. Privacy Policy  Contact